CAPE
154 609 1082 1543 1341 1230 1213 1200 1114 1000 901 881 1066 1262 1423 1553 1657 1649 1497 1174 946 771 1096 980 1052 1269 1310 1532 1651 1656 1583 1536 1574 1634 1648 1660 1794 2027 2300 2330 2097 2072 2370
208 753 1301 1530 1524 1450 1397 1359 1330 1295 1101 939 1047 1315 1544 1768 1889 1799 1458 1572 1459 1460 1232 1255 1299 1368 1469 1394 1568 1563 1516 1575 1644 1720 1755 1787 1950 1878 2058 2064 1959 2076 1953
353 1004 1095 1447 1580 1411 1317 1418 1521 1356 1372 1119 1051 1114 1494 1740 1873 1831 1722 1823 1652 1616 1293 1183 1223 1188 1091 1154 1317 1293 1473 1761 1825 1767 1410 1194 1624 2020 2068 2003 2076 2129 2255
608 893 1029 1142 1551 1121 1115 1442 1299 1269 1448 1330 1282 1057 1372 1871 1859 1837 1656 1859 1728 1630 1288 1285 1368 1238 1282 1283 1314 1321 1321 1266 1750 1797 1235 1416 1772 1983 1919 2013 1755 1607 1804
723 958 1137 1375 1450 1423 1253 1206 1198 1363 1457 1451 1209 917 1155 1428 1954 1766 1703 1737 1622 1663 1686 1686 1414 1221 1226 1104 1152 1165 1528 1558 1147 384 551 888 1307 1892 2027 1998 1917 1982 1894
747 1044 1475 1557 1484 1265 1194 1204 1134 1511 1741 1572 1386 778 1089 1640 1631 1596 1742 1705 1641 1827 1674 1490 1261 1250 1327 1165 1099 1287 1514 1625 1653 678 610 1262 1300 1587 1386 1241 1111 913 987
702 1047 1438 1421 1301 1362 1405 1076 767 1540 1444 1131 1449 1518 1504 1357 1390 1549 1735 1685 1945 1701 1228 1055 1046 1046 1085 1157 1033 1211 1214 1524 1095 816 919 1027 1293 1269 1075 1126 1477 1275 1335
463 1089 1221 1296 1160 1108 1246 1043 648 1278 1190 1439 1077 1014 1480 1516 1603 1677 1695 1736 1747 1349 1249 1324 1484 1407 1156 851 1704 1423 1517 1209 788 675 546 636 923 1206 1299 1181 1123 1136 1154
561 681 1196 1166 904 941 897 410 918 1469 1216 1242 1218 1691 1636 1631 1759 1812 1779 1569 1412 1389 1343 1397 1211 948 805 951 1443 1801 1578 727 314 265 489 712 1025 1600 1596 1464 1387 1480 1635
269 320 347 777 982 1049 1013 602 1316 1476 1220 1559 1756 1823 1777 1916 2004 2057 1854 1594 1391 1445 1237 1339 998 1105 1331 1237 1649 1585 1481 1218 417 159 510 689 956 1509 1637 1364 1218 1376 1376
11 161 374 381 381 572 856 1251 1406 1372 1567 1570 1663 1354 1491 1566 1546 1686 1716 1541 1642 1678 1654 1304 842 817 1136 851 953 1382 1740 1095 928 411 563 635 946 1612 1723 1535 1556 1436 1372
0 22 170 200 186 345 495 519 930 1021 1042 834 1051 791 1180 1313 1413 1249 1788 1849 1849 1767 1517 1189 1044 1128 940 436 101 231 240 476 946 610 737 672 935 1254 1252 1556 1395 1091 1035
0 1 65 57 41 111 191 221 330 384 410 612 739 855 977 760 1146 1037 1090 1536 1312 1332 755 509 408 550 715 207 0 14 0 224 711 598 233 258 757 1454 2014 1527 1117 979 973
0 0 2 16 13 46 119 136 153 110 143 298 280 493 626 557 767 672 458 571 428 343 139 136 317 478 584 275 0 77 100 59 690 235 159 171 173 752 1635 1906 1567 1479 1298
0 0 0 0 0 19 41 95 22 11 69 199 169 318 396 439 425 371 235 204 203 407 480 540 589 607 627 739 333 277 353 334 369 419 200 331 270 330 1121 1737 1863 1857 1831
0 0 0 0 0 26 41 30 1 12 138 181 133 216 227 352 339 202 172 217 381 312 367 575 561 589 634 607 578 378 355 427 605 587 507 276 337 207 867 1143 1948 1945 1898
0 0 0 0 0 14 65 38 2 15 100 126 193 145 113 178 242 204 221 281 330 185 398 519 456 652 626 634 623 485 456 533 688 699 586 494 289 239 882 833 1436 1441 1494
0 0 0 0 0 0 6 3 0 9 46 81 167 185 113 63 117 161 145 242 155 240 477 401 302 468 459 449 463 316 310 402 477 607 695 474 319 259 689 992 1034 1247 1016
0 0 0 0 0 0 0 0 0 0 3 32 129 228 158 0 40 35 68 113 5 296 184 176 419 618 243 324 239 188 112 182 177 213 506 594 417 435 594 759 882 1211 1197
16 0 0 0 0 0 0 0 0 0 0 4 60 110 159 1 29 10 0 0 11 235 328 55 689 312 157 201 131 148 58 5 0 165 455 712 627 605 683 619 859 1056 1043
28 4 0 0 0 0 0 0 0 0 0 25 92 113 107 74 11 27 0 0 0 123 440 293 772 461 247 22 87 87 57 0 0 11 396 595 684 866 723 563 780 1081 1296
24 25 4 0 0 0 0 0 0 1 40 101 129 111 60 27 0 13 0 0 0 222 671 565 850 612 301 128 294 251 158 1 0 0 71 542 612 687 783 615 802 948 1103
50 60 42 20 0 0 0 0 41 65 141 184 128 83 46 0 0 0 1 0 0 506 557 888 869 469 280 170 260 201 45 9 0 0 0 11 47 160 389 644 787 1036 725
67 83 71 42 0 23 0 4 76 110 139 153 190 179 85 0 11 83 0 0 16 689 561 465 918 427 105 157 45 37 38 1 0 25 0 0 0 7 0 0 20 262 925
92 104 100 76 34 24 42 6 31 135 92 169 267 304 148 58 45 129 15 0 241 899 844 475 767 526 240 262 68 0 0 0 0 21 13 46 4 28 3 0 0 0 13
53 68 91 72 53 20 78 55 47 149 180 172 182 260 249 118 86 148 96 133 14 696 965 696 644 895 922 602 142 0 0 13 145 117 126 85 69 73 21 18 33 11 0
CIN
-117 -21 -2 -0 -0 -0 -0 -0 -0 -0 -3 -12 -4 -0 -0 -0 -0 -0 -1 -6 -10 -9 -4 -15 -14 -4 -4 -1 -0 -2 -8 -15 -21 -20 -22 -24 -12 -6 -0 -0 -0 -0 -0
-131 -20 -1 -0 -0 -0 -0 -0 -0 -0 -0 -4 -0 -0 -0 -0 -0 -0 -8 -5 -2 -0 -1 -0 -0 -0 -0 -3 -1 -7 -9 -7 -17 -14 -12 -4 -9 -10 -0 -0 -5 -0 -0
-89 -18 -5 -1 -0 -0 -0 -0 -0 -0 -0 -7 -4 -1 -0 -0 -0 -0 -0 -0 -0 -0 -0 -0 -0 -3 -12 -25 -18 -13 -6 -1 -0 -1 -15 -26 -3 -0 -0 -0 -0 -0 -0
-84 -35 -12 -4 -0 -6 -2 -0 -0 -0 -0 -0 -0 -1 -0 -0 -0 -0 -0 -0 -0 -0 -0 -0 -0 -9 -11 -18 -16 -18 -16 -12 -2 -3 -19 -11 -0 -0 -0 -0 -1 -5 -1
-64 -30 -7 -3 -0 -0 -1 -0 -0 -0 -0 -0 -0 -1 -6 -4 -0 -0 -0 -0 -0 -0 -0 -0 -6 -11 -13 -18 -23 -29 -12 -11 -23 -71 -53 -31 -10 -0 -0 -0 -0 -0 -0
-46 -14 -1 -1 -0 -0 -0 -0 -0 -0 -0 -0 -0 -5 -3 -0 -0 -0 -0 -0 -0 -0 -0 -3 -7 -7 -8 -19 -22 -12 -14 -17 -5 -50 -53 -12 -4 -0 -1 -7 -20 -33 -30
-33 -4 -1 -0 -0 -0 -0 -3 -7 -0 -1 -3 -0 -0 -0 -0 -0 -0 -0 -0 -0 -0 -8 -16 -17 -19 -26 -21 -25 -16 -11 -24 -34 -43 -41 -29 -11 -3 -10 -7 -0 -1 -1
-53 -2 -2 -0 -0 -0 -0 -3 -4 -1 -1 -0 -7 -4 -0 -0 -0 -0 -0 -0 -0 -8 -5 -5 -9 -21 -38 -44 -21 -20 -24 -41 -53 -58 -60 -44 -26 -13 -2 -10 -10 -7 -5
-32 -18 -3 -1 -2 -0 -4 -13 -12 -0 -4 -3 -3 -0 -0 -0 -0 -0 -0 -0 -1 -0 -5 -11 -35 -48 -46 -46 -32 -32 -39 -75 -89 -107 -63 -41 -15 -3 -0 -1 -3 -0 -0
-38 -33 -33 -15 -3 -1 -2 -6 -1 -1 -1 -0 -0 -0 -0 -0 -0 -0 -1 -0 -1 -0 -14 -30 -51 -45 -37 -51 -31 -36 -46 -64 -104 -126 -84 -42 -18 -4 -0 -3 -12 -8 -4
-71 -35 -24 -36 -44 -19 -10 -0 -0 -0 -0 -0 -0 -1 -3 -2 -1 -2 -1 -0 -0 -0 -10 -39 -72 -66 -64 -90 -85 -50 -39 -77 -86 -109 -84 -59 -28 -2 -0 -6 -5 -14 -14
-0 -54 -32 -34 -37 -27 -20 -31 -11 -9 -15 -30 -24 -30 -16 -7 -4 -5 -1 -0 -0 -0 -30 -52 -77 -68 -88 -132 -199 -185 -167 -132 -97 -113 -96 -68 -32 -10 -6 -11 -11 -23 -24
-0 -8 -51 -41 -56 -36 -30 -34 -48 -40 -44 -39 -40 -33 -31 -33 -18 -31 -31 -8 -20 -40 -98 -108 -133 -110 -124 -181 -0 -314 -0 -193 -137 -144 -187 -165 -70 -13 -1 -8 -17 -21 -21
-0 -0 -91 -53 -44 -67 -41 -50 -58 -81 -74 -60 -75 -62 -41 -62 -52 -57 -84 -77 -102 -134 -153 -156 -146 -120 -123 -170 -2 -250 -223 -225 -152 -192 -210 -197 -194 -89 -20 -0 -13 -14 -18
-0 -0 -0 -15 -0 -48 -53 -56 -91 -143 -94 -80 -85 -91 -84 -93 -82 -89 -125 -161 -175 -130 -121 -115 -119 -105 -98 -134 -195 -194 -180 -171 -169 -158 -199 -188 -183 -183 -86 -37 -16 -11 -10
-0 -0 -0 -0 -0 -52 -57 -79 -69 -130 -101 -79 -92 -116 -117 -108 -88 -115 -140 -167 -129 -158 -153 -133 -114 -112 -94 -154 -162 -207 -158 -175 -159 -151 -163 -188 -183 -206 -119 -77 -5 -13 -14
-0 -0 -0 -0 -0 -86 -65 -80 -72 -114 -108 -86 -89 -128 -163 -133 -98 -110 -130 -138 -128 -183 -137 -130 -121 -122 -100 -143 -150 -179 -138 -127 -134 -143 -178 -185 -206 -202 -125 -114 -64 -41 -16
-0 -0 -0 -0 -0 -0 -93 -127 -95 -175 -110 -97 -98 -95 -132 -160 -150 -124 -123 -144 -179 -165 -106 -104 -124 -110 -119 -135 -130 -154 -164 -148 -155 -176 -187 -213 -218 -218 -148 -96 -84 -52 -43
-0 -0 -0 -0 -0 -0 -0 -0 -0 -0 -158 -116 -108 -102 -131 -0 -198 -95 -164 -169 -24 -137 -136 -129 -115 -114 -143 -160 -185 -217 -262 -225 -221 -245 -213 -220 -228 -211 -168 -119 -87 -61 -41
-178 -0 -0 -0 -0 -0 -0 -0 -0 -0 -0 -96 -125 -124 -135 -100 -199 -209 -0 -0 -46 -145 -107 -167 -86 -150 -179 -169 -209 -212 -295 -57 -0 -253 -228 -207 -203 -204 -173 -134 -97 -71 -62
-177 -46 -0 -0 -0 -0 -0 -0 -0 -0 -0 -128 -113 -125 -138 -168 -260 -221 -0 -0 -0 -154 -99 -125 -87 -101 -137 -281 -169 -201 -261 -0 -0 -295 -229 -217 -184 -162 -168 -157 -118 -76 -54
-153 -142 -43 -0 -0 -0 -0 -0 -0 -33 -124 -177 -140 -121 -165 -217 -0 -243 -0 -0 -0 -127 -86 -98 -81 -75 -116 -194 -82 -101 -94 -7 -0 -0 -247 -154 -178 -183 -140 -146 -121 -107 -82
-157 -140 -156 -195 -0 -0 -0 -0 -180 -145 -135 -107 -157 -113 -168 -0 -0 -0 -161 -0 -0 -96 -64 -75 -73 -83 -71 -138 -149 -98 -71 -29 -0 -0 -0 -108 -203 -179 -154 -138 -123 -108 -135
-152 -164 -156 -183 -21 -222 -0 -77 -143 -99 -75 -115 -86 -115 -122 -0 -133 -175 -43 -0 -94 -77 -67 -84 -84 -98 -137 -78 -209 -258 -208 -6 -0 -52 -0 -0 -0 -148 -0 -0 -226 -173 -116
-175 -155 -160 -170 -193 -200 -196 -147 -166 -101 -113 -80 -72 -71 -123 -157 -211 -166 -212 -0 -104 -75 -74 -81 -66 -81 -109 -78 -137 -0 -0 -0 -0 -88 -49 -64 -16 -191 -97 -0 -0 -0 -160
-172 -167 -168 -165 -180 -193 -165 -181 -165 -106 -95 -71 -75 -70 -79 -122 -160 -139 -145 -122 -151 -83 -63 -62 -61 -55 -50 -62 -110 -0 -0 -122 -73 -75 -69 -84 -88 -117 -107 -218 -221 -257 -0
Wind_Speed
1 6 10 15 16 19 22 21 20 20 20 20 19 19 20 21 22 23 25 24 24 24 24 24 24 24 24 25 25 25 25 25 24 22 23 22 20 19 18 14 9 7 11
9 7 12 10 11 16 20 17 17 15 16 18 18 18 19 20 21 22 22 21 23 24 24 25 25 26 26 26 26 26 25 24 23 21 21 22 20 20 19 16 7 8 7
13 10 9 1 6 9 16 13 15 11 9 15 16 16 16 18 18 20 20 22 23 25 25 26 26 27 27 26 27 26 24 23 21 20 20 21 21 20 20 22 18 16 13
15 15 14 13 3 10 14 12 16 8 7 11 13 15 14 16 17 19 18 20 21 25 25 26 26 27 27 27 26 26 24 24 21 21 21 20 20 20 20 16 17 17 19
10 7 12 12 10 7 7 10 16 10 9 10 9 12 14 16 18 19 19 19 23 24 25 27 27 26 26 26 25 22 20 20 20 21 20 20 20 20 20 17 17 19 18
4 5 9 7 5 6 7 9 12 12 7 7 9 10 13 15 18 20 19 19 24 25 27 27 27 26 26 24 20 17 16 17 18 20 21 20 20 20 20 18 18 19 18
6 3 5 8 10 18 9 13 8 12 9 7 11 10 15 18 21 20 19 22 24 27 27 27 26 25 24 23 18 16 19 21 21 21 20 19 19 19 18 16 17 17 17
10 4 7 4 13 16 6 6 6 12 9 7 8 10 15 18 20 20 20 24 26 27 27 26 25 25 24 22 19 19 22 23 22 21 20 19 19 19 18 16 16 16 17
4 4 9 14 13 17 11 7 4 8 4 5 4 9 13 14 16 17 22 26 27 27 27 27 27 25 24 22 21 23 22 21 20 20 19 19 18 18 17 16 16 15 15
10 4 4 7 15 11 10 6 6 5 5 5 6 7 8 9 8 9 10 17 21 24 27 26 25 25 23 22 22 22 21 20 18 19 19 18 18 18 17 16 15 15 15
4 4 4 8 10 11 10 6 6 5 7 4 6 7 3 3 4 3 15 12 16 20 23 24 23 22 22 19 17 16 17 16 18 19 18 18 17 17 17 16 15 15 15
23 2 9 13 14 14 12 5 4 4 4 4 3 5 5 5 4 8 16 15 13 16 19 17 20 20 17 16 13 13 13 12 15 19 17 18 16 16 16 16 15 15 15
22 23 14 5 13 9 5 3 3 3 3 3 4 4 6 5 4 14 17 14 11 14 19 15 18 17 14 13 15 13 14 14 17 18 17 17 16 15 14 15 15 15 15
21 23 22 6 3 4 3 2 1 2 4 3 6 6 5 5 7 15 18 14 12 16 18 18 16 15 14 15 14 14 16 14 15 17 17 17 16 15 14 14 14 14 14
24 23 20 14 10 13 13 1 6 3 3 4 5 5 6 7 15 21 19 15 14 13 17 18 17 15 14 14 16 16 15 17 17 16 16 16 17 16 15 14 13 14 14
19 21 22 23 25 22 22 21 5 11 2 3 8 6 11 11 15 22 21 15 14 13 14 18 17 16 14 15 16 16 14 15 15 14 15 15 16 16 15 14 13 14 14
22 22 21 22 23 22 25 30 28 27 10 12 13 9 18 19 21 22 22 18 17 14 13 13 15 16 13 14 15 15 13 14 13 13 13 14 15 15 15 15 15 14 13
23 23 21 23 25 27 26 25 29 28 26 24 22 25 18 21 23 24 22 20 18 16 12 12 14 14 13 13 16 14 14 10 12 12 13 14 14 14 15 15 15 14 14
23 23 23 23 26 28 28 27 27 29 28 26 22 25 24 24 24 25 21 21 18 18 14 12 13 14 13 14 14 16 14 15 14 13 14 14 14 15 15 15 15 15 14
19 18 19 25 27 25 22 26 27 28 28 28 27 25 25 25 25 25 20 21 19 18 14 12 12 13 14 13 14 15 15 16 17 16 15 13 14 14 15 15 15 15 15
16 18 20 25 27 21 16 20 24 22 29 29 27 27 26 10 14 21 21 13 19 19 16 15 15 15 15 13 14 16 17 17 19 20 19 16 16 14 13 14 14 14 14
20 20 23 27 24 22 20 20 13 14 24 26 26 27 26 16 18 23 22 21 22 20 17 16 17 18 17 19 20 17 10 1 17 18 18 16 17 15 13 13 12 13 13
23 22 25 27 26 23 19 15 13 15 18 19 24 22 9 10 13 9 7 16 22 23 18 17 19 20 18 20 19 11 14 16 21 18 19 17 16 13 13 12 12 11 12
28 23 24 25 25 25 21 15 7 2 2 2 9 23 14 14 12 7 5 6 25 21 19 20 20 22 20 22 19 18 15 12 20 20 20 20 15 13 13 11 10 11 13
24 23 20 24 27 25 22 21 15 13 3 15 12 20 18 15 10 7 13 1 20 23 20 20 20 20 22 23 21 14 12 16 18 20 22 21 20 14 11 8 7 16 11
19 17 16 25 28 26 23 21 16 20 6 6 12 1 12 10 19 27 26 28 30 27 25 24 25 23 23 23 22 20 5 21 22 21 22 21 20 18 12 9 9 11 12
Wind_Direction
81 63 68 84 79 85 94 87 79 77 76 75 71 71 73 74 75 77 83 83 84 90 86 85 84 89 91 98 101 101 112 105 106 123 117 79 57 49 43 34 6 344 28
99 73 80 75 68 80 91 77 72 61 66 74 73 73 74 74 71 73 69 61 69 77 77 80 82 87 94 90 94 92 110 106 106 123 127 105 60 60 54 40 297 270 320
102 85 72 9 44 52 82 60 70 40 30 68 72 75 70 74 69 72 66 70 77 82 82 85 82 89 94 83 91 101 108 103 118 128 129 109 103 75 81 101 177 197 225
103 100 93 92 21 64 80 61 81 24 10 47 60 75 73 75 71 73 67 68 68 83 82 85 86 88 88 89 89 99 101 98 122 115 115 120 122 106 95 59 181 191 178
89 80 93 88 75 40 23 52 92 55 35 41 26 62 81 81 82 81 76 70 83 82 84 93 94 95 100 103 100 114 122 118 119 117 121 115 120 115 132 183 193 168 196
66 60 82 64 305 28 26 54 71 64 20 19 31 51 73 80 84 88 78 72 86 85 97 103 104 112 114 105 124 132 136 137 131 119 120 124 125 126 141 175 170 174 187
72 24 40 68 251 224 60 86 46 67 50 25 58 57 74 87 94 89 79 86 88 100 110 110 109 119 113 106 126 138 123 116 116 115 123 133 137 141 148 174 183 184 194
85 36 56 320 242 234 30 353 31 66 52 42 56 61 76 87 92 87 84 95 107 119 118 115 123 124 114 118 126 128 115 109 113 119 128 133 141 142 148 161 178 186 191
343 318 72 239 246 235 265 24 358 37 4 25 13 59 73 76 77 75 92 111 133 135 123 126 121 122 119 123 122 115 116 119 122 124 128 133 137 141 149 158 166 176 187
86 30 16 282 246 271 282 357 25 358 15 37 48 57 58 59 48 49 213 189 174 155 132 131 126 118 118 124 119 121 120 121 127 131 132 137 141 139 146 154 166 175 181
348 342 321 283 284 276 282 346 25 15 49 18 51 60 318 315 275 316 203 210 193 175 155 146 139 133 129 136 140 140 133 132 130 132 138 138 143 145 148 153 161 168 174
145 46 279 263 263 258 264 337 350 359 341 340 351 16 10 13 293 241 204 208 212 194 173 179 161 147 151 148 155 154 145 148 136 132 140 140 146 155 151 151 160 163 169
120 137 121 315 262 280 307 0 41 346 359 311 342 345 19 4 323 221 209 219 232 205 177 192 168 160 170 165 143 151 147 143 131 129 139 145 146 150 162 156 159 164 167
126 145 148 52 359 319 333 296 55 18 279 15 31 28 326 325 282 222 211 225 235 208 188 176 179 174 172 153 157 148 138 147 143 136 135 138 146 148 153 162 169 176 177
163 160 135 110 96 108 112 316 249 281 287 321 319 335 357 297 232 206 210 228 235 242 208 187 181 177 174 169 147 128 143 129 135 139 140 134 130 139 144 148 162 169 174
132 142 146 158 169 139 136 131 250 242 303 320 281 320 271 265 240 207 210 232 242 265 251 208 187 173 181 165 144 140 136 140 131 145 142 138 126 133 137 142 150 155 162
155 152 139 145 143 132 136 171 202 202 259 262 259 290 237 227 221 212 212 228 239 262 276 265 215 169 200 192 167 159 153 145 153 158 161 151 134 134 140 139 138 141 149
159 158 138 147 146 145 146 144 180 201 203 216 225 214 239 223 218 216 219 230 238 245 303 306 256 228 245 200 169 154 149 263 275 285 147 146 150 140 138 139 140 146 138
159 155 149 144 152 154 153 151 163 180 190 201 222 209 214 217 216 218 235 231 244 245 278 323 289 269 286 31 72 13 312 328 294 281 284 144 164 143 138 134 134 141 145
147 137 140 156 161 153 139 159 173 184 190 198 202 215 213 217 219 224 248 241 247 258 287 305 310 308 293 23 357 3 346 315 304 297 279 203 163 157 139 127 130 134 129
140 140 146 157 163 142 125 139 160 151 196 200 197 202 199 124 262 248 256 278 254 259 278 289 281 287 292 325 2 321 329 315 306 309 302 251 184 179 165 145 128 134 137
153 151 156 166 157 154 148 148 201 251 192 210 211 207 229 146 154 253 256 257 251 260 279 282 279 278 286 276 255 313 116 50 2 286 301 319 238 208 189 169 149 135 135
162 158 163 169 169 159 152 139 260 258 258 255 243 246 290 124 135 296 302 273 259 255 274 284 277 273 295 287 293 276 2 339 322 273 318 337 227 187 184 180 166 148 153
174 163 163 167 171 171 158 151 152 139 139 127 131 174 139 138 135 102 333 188 251 260 271 270 271 265 291 286 304 312 357 18 303 298 302 270 198 203 194 173 151 159 157
170 168 162 167 177 175 165 168 165 270 265 273 288 172 167 157 138 113 141 227 254 254 271 278 280 291 281 276 286 342 5 340 314 303 290 290 254 210 156 118 120 192 144
171 169 168 174 184 180 173 171 168 171 165 278 283 251 159 156 177 217 202 205 217 248 266 273 272 277 282 282 287 298 8 277 262 273 285 283 273 250 182 143 134 162 160